Flag for Canada Weather past 2 weeks in Bathurst, New Brunswick, Canada

Now
25 °F

Passing clouds.


Feels Like: 16 °F
Forecast: 1 / 22 °F
Wind: 8 mph from West

Location: Bathurst Airport

Current Time: Mar 5, 2015 at 3:14:19 AM

Latest Report: Mar 5, 2015 at 2:00 AM


Visibility: 15 mi

Pressure: 29.61 "Hg

Humidity: 63%

Dew point: 14 °F

Location of BathurstLocation

Historic Weather in Bathurst — Graph

°F

Bathurst temperature yesterday

Maximum temperature yesterday: 34 °F (at 2:00 PM)
Minimum temperature yesterday: 3 °F (at 12:00 AM)
Average temperature yesterday: 21 °F

Past Weeks' High & Low Weather Summary

 TemperatureHumidityPressure
High34 °F (Mar 4, 2:00 PM)93% (Feb 19, 4:00 PM)30.56 "Hg (Feb 19, 4:00 PM)
Low-18 °F (Feb 28, 2:00 AM)26% (Mar 3, 3:00 PM)29.15 "Hg (Feb 20, 5:00 AM)
Average11 °F62%29.94 "Hg
* Reported Feb 18 2:00 AM — Mar 5 2:00 AM, Bathurst, Weather by CustomWeather, © 2015

Note: Actual official high and low records may vary slightly from our data, if they occured in-between our weather recording intervals... More about our weather records

Advertising

Bathurst weather history for previous 24 hours

 ConditionsComfort  
Time TempWeatherWind HumidityBarometerVisibility
2:00 AM
Thu, Mar 5
25 °FPassing clouds.8 mph63%29.61 "Hg15 mi
1:00 AM21 °FPassing clouds.7 mph63%29.58 "Hg15 mi
12:00 AM21 °FClear.8 mph63%29.55 "Hg15 mi
11:00 PM
Wed, Mar 4
23 °FPassing clouds.8 mph58%29.55 "Hg15 mi
10:00 PM25 °FPassing clouds.8 mph54%29.55 "Hg15 mi
9:00 PM27 °FClear.10 mph54%29.57 "Hg15 mi
8:00 PM28 °FPassing clouds.10 mph51%29.54 "Hg15 mi
6:00 PM30 °FScattered clouds.9 mph55%29.48 "Hg15 mi
5:00 PM32 °FScattered clouds.9 mph55%29.47 "Hg15 mi
4:00 PM32 °FScattered clouds.15 mph55%29.46 "Hg15 mi
3:00 PM34 °FScattered clouds.15 mph51%29.44 "Hg15 mi
2:00 PM34 °FScattered clouds.16 mph48%29.43 "Hg15 mi
1:00 PM30 °FPartly sunny.15 mph64%29.44 "Hg15 mi
12:00 PM30 °FPartly sunny.13 mph64%29.44 "Hg15 mi
11:00 AM28 °FPartly sunny.12 mph69%29.44 "Hg15 mi
10:00 AM23 °FPassing clouds.5 mph74%29.46 "Hg15 mi
9:00 AM18 °FPartly sunny.3 mph79%29.49 "Hg15 mi
8:00 AM14 °FLight snow. Overcast.6 mph79%29.53 "Hg4 mi
7:00 AM12 °FLight snow. More clouds than sun.5 mph85%29.55 "Hg4 mi
6:00 AM12 °FLight snow. Ice fog.3 mph85%29.58 "Hg1 mi
5:00 AM12 °FLight snow. Ice fog.2 mph85%29.63 "Hg1 mi
4:45 AM12 °FLight snow. Ice fog.2 mph85%29.65 "Hg1 mi
4:00 AM12 °FSnow. Ice fog.6 mph85%29.69 "Hg1 mi
3:00 AM10 °FLight snow. Ice fog.6 mph79%29.78 "Hg1 mi
Weather by CustomWeather, © 2015

See weather overviewHow to use our weather pages